Del Bajio, Mexico

1:31 AM CDT on August 26, 2016 (GMT -0500)
De Guanajuato International

Weather History for MMLO - February, 2014

Change the Weather History Date:

Thursday, February 13, 2014

  Actual Average Record
Temperature  
Mean Temperature 64 °F -  
Max Temperature 84 °F 77 °F 87 °F (2013)
Min Temperature 44 °F 44 °F 39 °F (1998)
Degree Days  
Heating Degree Days 1    
Growing Degree Days 14 (Base 50)    
Moisture  
Dew Point 25 °F    
Average Humidity 28    
Maximum Humidity 76    
Minimum Humidity 10    
Precipitation  
Precipitation 0.00 in - - ()
Sea Level Pressure  
Sea Level Pressure 30.09 in    
Wind  
Wind Speed 3 mph ()    
Max Wind Speed 12 mph    
Max Gust Speed -    
Visibility 9.0 miles    
Events      
Averages and records for this station are not official NWS values.
T = Trace of Precipitation, MM = Missing Value Source: Averaged Metar Reports

Daily Weather History Graph

Daily Weather History Graph

Search for Another Location

Airport or City:

Trip Planner

Search our weather history database for the weather conditions in past years. The results will help you decide how hot, cold, wet, or windy it might be!

Date:

Astronomy

Feb. 13, 2014 Rise Set
Actual Time 7:17 AM CST 6:43 PM CST
Civil Twilight 6:54 AM CST 7:06 PM CST
Nautical Twilight 6:28 AM CST 7:32 PM CST
Astronomical Twilight 6:02 AM CST 7:58 PM CST
Moon 5:52 PM CST (2/13) 6:10 AM CST (2/13)
Length of Visible Light 12h 11m
Length of Day
11h 26m
Waxing Gibbous, 99% of the Moon is Illuminated
Feb 13
Waxing Gibbous
Feb 14
Full
Feb 22
Last Quarter
Mar 1
New
Mar 8
First Quarter

Hourly Weather History & Observations

Time (CST) Temp. Windchill Dew Point Humidity Pressure Visibility Wind Dir Wind Speed Gust Speed Precip Events Conditions
12:43 AM 55.4 °F - 21.2 °F 26% 30.18 in 8.0 mi ENE 5.8 mph - N/A   Clear
2:40 AM 48.2 °F - 41.0 °F 76% 30.18 in 8.0 mi NNW 6.9 mph - N/A   Clear
3:48 AM 46.4 °F - 26.6 °F 46% 30.18 in 8.0 mi Calm Calm - N/A   Clear
4:43 AM 46.4 °F 45.2 °F 24.8 °F 43% 30.18 in 8.0 mi NNE 3.5 mph - N/A   Clear
5:44 AM 44.6 °F 43.1 °F 26.6 °F 49% 29.88 in 8.0 mi NE 3.5 mph - N/A   Clear
6:44 AM 44.6 °F 42.2 °F 26.6 °F 49% 30.21 in 8.0 mi NE 4.6 mph - N/A   Clear
7:47 AM 46.4 °F - 28.4 °F 50% 30.24 in 9.0 mi Calm Calm - N/A   Clear
8:41 AM 57.2 °F - 26.6 °F 31% 29.98 in 10.0 mi Calm Calm - N/A   Clear
9:50 AM 66.2 °F - 26.6 °F 23% 30.27 in 10.0 mi Calm Calm - N/A   Clear
10:51 AM 71.6 °F - 28.4 °F 20% 30.27 in 10.0 mi Calm Calm - N/A   Clear
11:43 AM 73.4 °F - 28.4 °F 19% 29.94 in 10.0 mi Calm Calm - N/A   Clear
12:44 PM 78.8 °F - 26.6 °F 15% 30.24 in 10.0 mi Calm Calm - N/A   Clear
1:42 PM 80.6 °F - 23.0 °F 12% 30.18 in 10.0 mi WNW 10.4 mph - N/A   Clear
2:49 PM 84.2 °F - 23.0 °F 11% 29.77 in 10.0 mi SW 11.5 mph - N/A   Clear
3:43 PM 82.4 °F - 21.2 °F 10% 30.12 in 10.0 mi Calm Calm - N/A   Clear
4:51 PM 82.4 °F - 21.2 °F 10% 30.09 in 10.0 mi WNW 6.9 mph - N/A   Clear
5:48 PM 80.6 °F - 19.4 °F 10% 29.76 in 10.0 mi WSW 5.8 mph - N/A   Clear
6:47 PM 73.4 °F - 17.6 °F 12% 30.12 in 10.0 mi Calm Calm - N/A   Clear
7:44 PM 66.2 °F - 23.0 °F 19% 30.12 in 8.0 mi SE 4.6 mph - N/A   Clear
8:42 PM 62.6 °F - 23.0 °F 22% 29.84 in 8.0 mi North 3.5 mph - N/A   Clear
9:50 PM 59.0 °F - 23.0 °F 25% 30.17 in 8.0 mi NNE 8.1 mph - N/A   Clear
10:47 PM 57.2 °F - 23.0 °F 27% 30.18 in 8.0 mi NE 6.9 mph - N/A   Clear
11:50 PM 53.6 °F - 23.0 °F 30% 29.88 in 8.0 mi Calm Calm - N/A   Clear